Preview of NWS' New Version of Forecast
This preview is not operational and should not be used for support decisions.

Regional Weather Roundup (RWR)

Issued by National Weather Service (NWS)

                            
000
ASUS43 KTOP 212008
RWRKS 

WEATHER ROUNDUP FOR KANSAS
NATIONAL WEATHER SERVICE GOODLAND KS
300 PM CDT SUN APR 21 2019

NOTE:  "FAIR" INDICATES FEW OR NO CLOUDS BELOW 12,000 FEET WITH NO
SIGNIFICANT WEATHER AND/OR OBSTRUCTIONS TO VISIBILITY.

KSZ001>006-013>018-027>032-041>047-212100-
NORTHWEST KANSAS
  
CITY           SKY/WX    TMP DP  RH WIND       PRES   REMARKS
GOODLAND       SUNNY     75  48  38 N20G37    29.72R                  
HAYS           SUNNY     90  38  16 SW23G33   29.60S                  
HILL CITY      SUNNY     87  43  21 SW16G30   29.60R                  
RUSSELL        SUNNY     88  45  22 S23G35    29.60F                  
$$

KSZ061>065-074>080-084>089-212100-
SOUTHWEST KANSAS
  
CITY           SKY/WX    TMP DP  RH WIND       PRES   REMARKS
DODGE CITY     SUNNY     87  34  15 SW18G30   29.67S                  
ELKHART        MOSUNNY   87  38  18 SW20      29.73S                  
GARDEN CITY    SUNNY     86  31  13 W20G33    29.67F                  
GREAT BEND     SUNNY     85  52  32 S23G31    29.64F                  
LIBERAL        SUNNY     87  32  14 SW16G26   29.70F                  
PRATT          SUNNY     83  51  32 S23G29    29.70S                  
$$

KSZ066>073-081>083-090>101-212100-
SOUTHEAST KANSAS
  
CITY           SKY/WX    TMP DP  RH WIND       PRES   REMARKS
CHANUTE        SUNNY     84  49  29 S32G44    29.82S                  
COFFEYVILLE    MOSUNNY   83  52  34 S24G38    29.82F                  
HUTCHINSON     SUNNY     81  57  43 S25G36    29.70S                  
MEDICINE LODGE   N/A     80  57  45 S22G31    29.70S                  
NEWTON         SUNNY     80  58  46 S32G40    29.73S                  
PARSONS        SUNNY     82  50  32 S21G46    29.83F                  
WICHITA INTL   MOSUNNY   80  57  45 S24G40    29.73F                  
WICHITA JABRA  SUNNY     81  57  43 S21G39    29.74S                  
WICHITA MCCONL MOSUNNY   80  58  46 SE28G38   29.74                   
WINFIELD       SUNNY     81  58  45 S24G36    29.76F                  
$$

KSZ007>012-019>026-033>040-048>060-102>105-212100-
NORTHEAST KANSAS
  
CITY           SKY/WX    TMP DP  RH WIND       PRES   REMARKS
CONCORDIA      SUNNY     82  54  37 S28G37    29.65F                  
EMPORIA        SUNNY     84  54  35 S32G46    29.73S                  
LAWRENCE       MOSUNNY   84  48  28 S26G45    29.76S                  
MANHATTAN      SUNNY     86  53  32 SW26G44   29.68S                  
MARYSVILLE     SUNNY     82  54  36 S25       29.68S                  
OLATHE IND     SUNNY     83  49  30 S28G47    29.79F                  
OLATHE EXE     SUNNY     82  49  31 S24G37    29.80S                  
SALINA         SUNNY     82  55  39 S24G40    29.68S                  
TOPEKA BILLARD SUNNY     85  48  27 S25G41    29.74F                  
TOPEKA FORBES  SUNNY     83  49  30 S28G43    29.73F                  
$$